Content
SEND FEEDBACK

Daily
Averages
Monthly
Summary
United States of America

ASATDAS, GUAM


Home > North America > United States > Guam
Elevation: 186 meters     Latitude: 13 35N     Longitude: 144 56E

WEATHER
 
SELECT A DAY
Number of Records: 208,807;   Date Range: 1/1/95 - 7/7/14
 
SHARE

PRINT THIS DATA

[ ← Previous Day ]
WEATHER ALMANAC - 9 MAY, 2013
[ Next Day → ]
[ °F ]   °C
Weather ElementAverageHighLow
Temperature29.9 °C32.2 °C (11:54 am)27.8 °C (1:54 am)
Dewpoint23.6 °C24.4 °C (1:54 am)21.7 °C (3:54 pm)
Humidity69.5 %82 % (1:54 am)55 % (1:54 pm)
Barometer1010.5 hPa1011.9 hPa (9:54 pm)1008.8 hPa (3:54 pm)
Wind Speed12.7 km/h20.4 km/h (10:54 am)
Weather ElementAverage
Visibility16.1 km
Wind DirectionENE (74.8 °)

Weather ElementTotal
Precipitation---
Cooling Degree Days11.7 (Base 18.3)
Growing Degree Days20 (Base 10)
Averaged from 23 records on 9 May, 2013
WEATHER CONDITIONS BREAKOUT
WIND DIRECTION BREAKOUT
WEATHER BY HOUR - 9 MAY, 2013
[ °F ]   °C
Local TimeTemperatureDewpointHumidityBarometerVisibilityWind DirectionWind SpeedGust SpeedPrecipitationEventsConditions
1:54 AM27.8 °C24.4 °C82 %1009.8 hPa16.1 kmNE (50°)9.3 km/hPartly Cloudy
2:54 AM28.3 °C24.4 °C79 %1009.5 hPa16.1 kmENE (70°)9.3 km/hScattered Clouds
3:54 AM28.3 °C23.9 °C77 %1009.1 hPa16.1 kmENE (70°)7.4 km/hScattered Clouds
4:54 AM28.3 °C24.4 °C79 %1009.5 hPa16.1 kmENE (70°)11.1 km/hClear
5:54 AM28.3 °C24.4 °C79 %1009.8 hPa16.1 kmEast (80°)5.6 km/hPartly Cloudy
6:54 AM28.9 °C23.3 °C72 %1010.5 hPa16.1 kmEast (80°)9.3 km/hClear
7:54 AM29.4 °C23.9 °C72 %1011.2 hPa16.1 kmEast (80°)16.7 km/hPartly Cloudy
8:54 AM30.6 °C23.3 °C65 %1011.5 hPa16.1 kmENE (60°)18.5 km/hScattered Clouds
9:54 AM31.1 °C23.9 °C65 %1011.5 hPa16.1 kmEast (90°)14.8 km/hScattered Clouds
10:54 AM31.1 °C22.8 °C61 %1011.2 hPa16.1 kmEast (90°)20.4 km/hPartly Cloudy
11:54 AM32.2 °C22.8 °C57 %1010.8 hPa16.1 kmEast (100°)20.4 km/hClear
12:54 PM31.7 °C22.2 °C57 %1010.5 hPa16.1 kmEast (100°)20.4 km/hPartly Cloudy
1:54 PM32.2 °C22.2 °C55 %1009.5 hPa16.1 kmEast (90°)14.8 km/hPartly Cloudy
2:54 PM32.2 °C22.2 °C55 %1009.1 hPa16.1 kmEast (90°)16.7 km/hClear
3:54 PM31.7 °C21.7 °C55 %1008.8 hPa16.1 kmESE (110°)16.7 km/hClear
4:54 PM30.6 °C23.9 °C67 %1009.1 hPa16.1 kmESE (110°)14.8 km/hPartly Cloudy
5:54 PM30.6 °C23.9 °C67 %1009.8 hPa16.1 kmENE (70°)14.8 km/hClear
6:54 PM30 °C23.9 °C70 %1010.5 hPa16.1 kmENE (60°)13 km/hClear
7:54 PM29.4 °C24.4 °C74 %1010.8 hPa16.1 kmNE (50°)7.4 km/hClear
8:54 PM28.9 °C24.4 °C76 %1011.5 hPa16.1 kmNE (50°)7.4 km/hPartly Cloudy
9:54 PM28.9 °C24.4 °C76 %1011.9 hPa16.1 kmNE (50°)7.4 km/hPartly Cloudy
10:54 PM28.3 °C24.4 °C79 %1011.5 hPa16.1 kmNE (50°)7.4 km/hClear
11:54 PM28.3 °C24.4 °C79 %1011.2 hPa16.1 kmNE (50°)9.3 km/hClear
Hourly data recorded from PGUM, located 0 kilometers away from Asatdas, Guam







STORIES FROM OUR PARTNERS